| time (UTC) | temp C | wind direction | speed KPH | gust KPH | rain 1hr cm | rain 24hr cm | rain mn cm | humidity % | barometer mb |
| 20260507034803 | 14 | 129 | 3.2 | 9.7 | 0.00 | 0.00 | 0.00 | 73 | 1010.4 |
| 20260507034603 | 14 | 136 | 3.2 | 9.7 | 0.00 | 0.00 | 0.00 | 73 | 1010.5 |
| 20260507034404 | 14 | 133 | 4.8 | 9.7 | 0.00 | 0.00 | 0.00 | 73 | 1010.5 |
| 20260507034203 | 14 | 132 | 4.8 | 9.7 | 0.00 | 0.00 | 0.00 | 73 | 1010.5 |
| 20260507034003 | 14 | 127 | 4.8 | 9.7 | 0.00 | 0.00 | 0.00 | 73 | 1010.4 |
| 20260507033803 | 14 | 116 | 4.8 | 9.7 | 0.00 | 0.00 | 0.00 | 72 | 1010.4 |
| 20260507033603 | 14 | 101 | 4.8 | 8.0 | 0.00 | 0.00 | 0.00 | 72 | 1010.4 |
| 20260507033403 | 14 | 87 | 4.8 | 8.0 | 0.00 | 0.00 | 0.00 | 72 | 1010.2 |
| 20260507033203 | 14 | 88 | 4.8 | 8.0 | 0.00 | 0.00 | 0.00 | 73 | 1010.4 |
| 20260507032603 | 14 | 109 | 3.2 | 8.0 | 0.00 | 0.00 | 0.00 | 73 | 1010.3 |
| 20260507032003 | 14 | 115 | 3.2 | 6.4 | 0.00 | 0.00 | 0.00 | 73 | 1010.3 |
| 20260507031803 | 14 | 108 | 3.2 | 6.4 | 0.00 | 0.00 | 0.00 | 73 | 1010.2 |
| 20260507031603 | 14 | 95 | 3.2 | 6.4 | 0.00 | 0.00 | 0.00 | 73 | 1010.3 |
| 20260507031403 | 14 | 86 | 3.2 | 9.7 | 0.00 | 0.00 | 0.00 | 73 | 1010.2 |
| 20260507031203 | 14 | 90 | 3.2 | 9.7 | 0.00 | 0.00 | 0.00 | 73 | 1010.0 |
| 20260507031003 | 14 | 93 | 3.2 | 9.7 | 0.00 | 0.00 | 0.00 | 73 | 1010.1 |
| 20260507030603 | 14 | 104 | 3.2 | 9.7 | 0.00 | 0.00 | 0.00 | 73 | 1010.0 |
| 20260507030403 | 14 | 107 | 3.2 | 9.7 | 0.00 | 0.00 | 0.00 | 73 | 1010.2 |
| 20260507030203 | 14 | 105 | 3.2 | 11.3 | 0.00 | 0.00 | 0.00 | 73 | 1010.2 |
| 20260507030003 | 14 | 126 | 3.2 | 11.3 | 0.00 | 0.00 | 0.00 | 73 | 1010.3 |
| 20260507025803 | 14 | 112 | 4.8 | 11.3 | 0.00 | 0.00 | 0.00 | 73 | 1010.3 |
| 20260507025603 | 15 | 108 | 3.2 | 11.3 | 0.00 | 0.00 | 0.00 | 73 | 1010.3 |
| 20260507025403 | 15 | 118 | 3.2 | 11.3 | 0.00 | 0.00 | 0.00 | 72 | 1010.3 |
| 20260507025203 | 15 | 132 | 4.8 | 11.3 | 0.00 | 0.00 | 0.00 | 72 | 1010.4 |
| 20260507025003 | 15 | 112 | 4.8 | 11.3 | 0.00 | 0.00 | 0.00 | 72 | 1010.5 |
| 20260507024803 | 15 | 108 | 4.8 | 11.3 | 0.00 | 0.00 | 0.00 | 72 | 1010.2 |
| 20260507024603 | 15 | 101 | 4.8 | 11.3 | 0.00 | 0.00 | 0.00 | 71 | 1010.3 |
| 20260507024403 | 15 | 97 | 6.4 | 11.3 | 0.00 | 0.00 | 0.00 | 71 | 1010.1 |
| 20260507024203 | 15 | 86 | 4.8 | 9.7 | 0.00 | 0.00 | 0.00 | 71 | 1010.1 |
| 20260507024003 | 15 | 72 | 4.8 | 9.7 | 0.00 | 0.00 | 0.00 | 71 | 1010.2 |
| 20260507023803 | 15 | 66 | 3.2 | 9.7 | 0.00 | 0.00 | 0.00 | 71 | 1010.2 |
| 20260507023403 | 15 | 67 | 1.6 | 8.0 | 0.00 | 0.00 | 0.00 | 71 | 1010.2 |
| 20260507023203 | 15 | 63 | 3.2 | 8.0 | 0.00 | 0.00 | 0.00 | 70 | 1010.1 |
| 20260507023003 | 15 | 55 | 3.2 | 8.0 | 0.00 | 0.00 | 0.00 | 70 | 1010.0 |
| 20260507022803 | 15 | 44 | 3.2 | 8.0 | 0.00 | 0.00 | 0.00 | 70 | 1010.0 |
| 20260507022603 | 15 | 46 | 3.2 | 8.0 | 0.00 | 0.00 | 0.00 | 70 | 1010.1 |
| 20260507022403 | 15 | 45 | 3.2 | 8.0 | 0.00 | 0.00 | 0.00 | 69 | 1010.1 |
| 20260507022203 | 15 | 41 | 1.6 | 8.0 | 0.00 | 0.00 | 0.00 | 69 | 1010.0 |
| 20260507022003 | 15 | 39 | 1.6 | 4.8 | 0.00 | 0.00 | 0.00 | 69 | 1010.1 |
| 20260507021803 | 15 | 34 | 1.6 | 4.8 | 0.00 | 0.00 | 0.00 | 69 | 1009.9 |
| 20260507021603 | 15 | 23 | 1.6 | 4.8 | 0.00 | 0.00 | 0.00 | 69 | 1009.9 |
| 20260507021404 | 15 | 8 | 1.6 | 3.2 | 0.00 | 0.00 | 0.00 | 69 | 1009.9 |
| 20260507020803 | 15 | 332 | 1.6 | 6.4 | 0.00 | 0.00 | 0.00 | 69 | 1010.1 |
| 20260507020603 | 15 | 318 | 1.6 | 6.4 | 0.00 | 0.00 | 0.00 | 69 | 1010.0 |
| 20260507020203 | 15 | 310 | 1.6 | 6.4 | 0.00 | 0.00 | 0.00 | 68 | 1010.0 |
| 20260507020003 | 16 | 345 | 1.6 | 6.4 | 0.00 | 0.00 | 0.00 | 68 | 1010.0 |
| 20260507015603 | 15 | 61 | 0.0 | 3.2 | 0.00 | 0.00 | 0.00 | 69 | 1009.8 |
| 20260507015403 | 15 | 64 | 0.0 | 3.2 | 0.00 | 0.00 | 0.00 | 69 | 1009.8 |
| 20260507015203 | 15 | 315 | 0.0 | 6.4 | 0.00 | 0.00 | 0.00 | 69 | 1009.9 |
| 20260507015003 | 15 | 260 | 1.6 | 8.0 | 0.00 | 0.00 | 0.00 | 69 | 1009.8 |
| 20260507014803 | 15 | 270 | 3.2 | 8.0 | 0.00 | 0.00 | 0.00 | 69 | 1009.7 |
| 20260507014603 | 15 | 277 | 3.2 | 9.7 | 0.00 | 0.00 | 0.00 | 70 | 1010.0 |
| 20260507014403 | 15 | 284 | 4.8 | 9.7 | 0.00 | 0.00 | 0.00 | 70 | 1009.8 |
| 20260507014203 | 15 | 289 | 6.4 | 12.9 | 0.00 | 0.00 | 0.00 | 70 | 1009.8 |
| 20260507014003 | 15 | 297 | 8.0 | 12.9 | 0.00 | 0.00 | 0.00 | 70 | 1009.7 |
| 20260507013603 | 15 | 301 | 9.7 | 12.9 | 0.00 | 0.00 | 0.00 | 70 | 1009.8 |
| 20260507013203 | 15 | 299 | 9.7 | 12.9 | 0.00 | 0.00 | 0.00 | 69 | 1009.9 |
| 20260507013003 | 15 | 301 | 9.7 | 12.9 | 0.00 | 0.00 | 0.00 | 69 | 1009.7 |
| 20260507012803 | 15 | 300 | 8.0 | 14.5 | 0.00 | 0.00 | 0.00 | 69 | 1009.7 |
| 20260507012603 | 15 | 303 | 8.0 | 14.5 | 0.00 | 0.00 | 0.00 | 68 | 1009.7 |
| 20260507012403 | 15 | 307 | 8.0 | 14.5 | 0.00 | 0.00 | 0.00 | 68 | 1009.6 |
| 20260507012203 | 16 | 309 | 9.7 | 16.1 | 0.00 | 0.00 | 0.00 | 67 | 1009.7 |
| 20260507011803 | 16 | 280 | 8.0 | 16.1 | 0.00 | 0.00 | 0.00 | 66 | 1009.8 |
| 20260507011603 | 16 | 266 | 8.0 | 19.3 | 0.00 | 0.00 | 0.00 | 66 | 1009.6 |
| 20260507011403 | 16 | 258 | 8.0 | 19.3 | 0.00 | 0.00 | 0.00 | 66 | 1009.7 |
| 20260507011203 | 16 | 251 | 8.0 | 19.3 | 0.00 | 0.00 | 0.00 | 66 | 1009.6 |
| 20260507011003 | 16 | 252 | 8.0 | 19.3 | 0.00 | 0.00 | 0.00 | 66 | 1009.3 |
| 20260507010803 | 16 | 249 | 8.0 | 19.3 | 0.00 | 0.00 | 0.00 | 66 | 1009.5 |
| 20260507010603 | 16 | 247 | 8.0 | 19.3 | 0.00 | 0.00 | 0.00 | 66 | 1009.3 |
| 20260507010403 | 16 | 245 | 9.7 | 17.7 | 0.00 | 0.00 | 0.00 | 66 | 1009.5 |
| 20260507010203 | 16 | 236 | 9.7 | 17.7 | 0.00 | 0.00 | 0.00 | 66 | 1009.3 |
| 20260507010003 | 16 | 231 | 9.7 | 20.9 | 0.00 | 0.00 | 0.00 | 66 | 1009.3 |
| 20260507005803 | 16 | 232 | 9.7 | 20.9 | 0.00 | 0.00 | 0.00 | 66 | 1009.2 |
| 20260507005603 | 16 | 229 | 9.7 | 20.9 | 0.00 | 0.00 | 0.00 | 65 | 1009.3 |
| 20260507005403 | 16 | 230 | 9.7 | 20.9 | 0.00 | 0.00 | 0.00 | 65 | 1009.3 |
| 20260507004803 | 16 | 250 | 11.3 | 25.7 | 0.00 | 0.00 | 0.00 | 65 | 1009.2 |
| 20260507004403 | 16 | 245 | 12.9 | 25.7 | 0.00 | 0.00 | 0.00 | 65 | 1009.3 |
| 20260507004203 | 16 | 241 | 11.3 | 25.7 | 0.00 | 0.00 | 0.00 | 65 | 1009.2 |
| 20260507003803 | 16 | 230 | 12.9 | 22.5 | 0.00 | 0.00 | 0.00 | 65 | 1009.0 |
| 20260507003403 | 16 | 231 | 12.9 | 22.5 | 0.00 | 0.00 | 0.00 | 65 | 1009.3 |
| 20260507003203 | 16 | 224 | 12.9 | 22.5 | 0.00 | 0.00 | 0.00 | 65 | 1009.2 |
| 20260507003003 | 16 | 225 | 12.9 | 22.5 | 0.00 | 0.00 | 0.00 | 65 | 1009.1 |
| 20260507002803 | 16 | 228 | 11.3 | 22.5 | 0.00 | 0.00 | 0.00 | 66 | 1009.4 |
| 20260507002603 | 16 | 230 | 11.3 | 22.5 | 0.00 | 0.00 | 0.00 | 65 | 1009.3 |
| 20260507002403 | 16 | 232 | 11.3 | 22.5 | 0.00 | 0.00 | 0.00 | 65 | 1009.3 |
| 20260507002003 | 16 | 227 | 11.3 | 22.5 | 0.00 | 0.00 | 0.00 | 65 | 1009.1 |
| 20260507001803 | 16 | 233 | 11.3 | 22.5 | 0.00 | 0.00 | 0.00 | 65 | 1009.1 |
| 20260507001603 | 16 | 234 | 9.7 | 19.3 | 0.00 | 0.00 | 0.00 | 65 | 1009.3 |
| 20260507001403 | 16 | 236 | 9.7 | 19.3 | 0.00 | 0.00 | 0.00 | 66 | 1009.2 |
| 20260507001203 | 16 | 241 | 9.7 | 19.3 | 0.00 | 0.00 | 0.00 | 65 | 1009.3 |
| 20260507001003 | 16 | 245 | 11.3 | 19.3 | 0.00 | 0.00 | 0.00 | 65 | 1009.3 |
| 20260507000603 | 16 | 240 | 11.3 | 20.9 | 0.00 | 0.00 | 0.00 | 65 | 1009.3 |
| 20260507000405 | 16 | 236 | 12.9 | 20.9 | 0.00 | 0.00 | 0.00 | 65 | 1009.3 |
| 20260507000205 | 16 | 233 | 12.9 | 20.9 | 0.00 | 0.00 | 0.00 | 65 | 1009.3 |
| 20260507000003 | 16 | 236 | 11.3 | 20.9 | 0.00 | 0.00 | 0.00 | 65 | 1009.0 |
| 20260506235603 | 16 | 237 | 9.7 | 19.3 | 0.00 | 0.00 | 0.00 | 65 | 1009.2 |
| 20260506235003 | 16 | 246 | 9.7 | 19.3 | 0.00 | 0.00 | 0.00 | 65 | 1009.2 |
| 20260506234603 | 16 | 256 | 8.0 | 17.7 | 0.00 | 0.00 | 0.00 | 64 | 1009.3 |
| 20260506234403 | 16 | 253 | 8.0 | 17.7 | 0.00 | 0.00 | 0.00 | 64 | 1009.1 |
| 20260506234203 | 16 | 254 | 8.0 | 17.7 | 0.00 | 0.00 | 0.00 | 64 | 1009.3 |
| 20260506234003 | 16 | 252 | 8.0 | 17.7 | 0.00 | 0.00 | 0.00 | 64 | 1009.3 |
| 20260506233803 | 16 | 246 | 8.0 | 19.3 | 0.00 | 0.00 | 0.00 | 64 | 1009.2 |
| 20260506233603 | 16 | 247 | 9.7 | 20.9 | 0.00 | 0.00 | 0.00 | 64 | 1009.3 |
| 20260506233403 | 16 | 246 | 9.7 | 20.9 | 0.00 | 0.00 | 0.00 | 64 | 1009.2 |
| 20260506233203 | 16 | 246 | 9.7 | 20.9 | 0.00 | 0.00 | 0.00 | 64 | 1009.1 |
| 20260506233003 | 16 | 243 | 11.3 | 20.9 | 0.00 | 0.00 | 0.00 | 64 | 1009.2 |
| 20260506232603 | 16 | 245 | 11.3 | 20.9 | 0.00 | 0.00 | 0.00 | 64 | 1009.3 |
| 20260506232003 | 16 | 266 | 8.0 | 17.7 | 0.00 | 0.00 | 0.00 | 64 | 1009.2 |
| 20260506231803 | 16 | 271 | 8.0 | 17.7 | 0.00 | 0.00 | 0.00 | 64 | 1009.3 |
| 20260506231603 | 16 | 271 | 8.0 | 19.3 | 0.00 | 0.00 | 0.00 | 64 | 1009.4 |
| 20260506231403 | 16 | 264 | 8.0 | 19.3 | 0.00 | 0.00 | 0.00 | 64 | 1009.3 |
| 20260506231203 | 16 | 259 | 8.0 | 19.3 | 0.00 | 0.00 | 0.00 | 64 | 1009.1 |
| 20260506231003 | 16 | 249 | 9.7 | 19.3 | 0.00 | 0.00 | 0.00 | 64 | 1009.2 |
| 20260506230403 | 16 | 236 | 8.0 | 17.7 | 0.00 | 0.00 | 0.00 | 64 | 1009.2 |
| 20260506230203 | 16 | 234 | 8.0 | 17.7 | 0.00 | 0.00 | 0.00 | 65 | 1009.3 |
| 20260506230003 | 16 | 239 | 6.4 | 12.9 | 0.00 | 0.00 | 0.00 | 65 | 1009.3 |
| 20260506225803 | 16 | 249 | 4.8 | 8.0 | 0.00 | 0.00 | 0.00 | 65 | 1009.2 |
| 20260506225603 | 16 | 259 | 4.8 | 8.0 | 0.00 | 0.00 | 0.00 | 65 | 1009.3 |
| 20260506225403 | 16 | 266 | 3.2 | 8.0 | 0.00 | 0.00 | 0.00 | 65 | 1009.2 |
| 20260506225203 | 16 | 264 | 4.8 | 8.0 | 0.00 | 0.00 | 0.00 | 65 | 1009.1 |
| 20260506224803 | 16 | 267 | 4.8 | 11.3 | 0.00 | 0.00 | 0.00 | 65 | 1009.2 |
| 20260506224603 | 16 | 250 | 4.8 | 11.3 | 0.00 | 0.00 | 0.00 | 65 | 1009.1 |
| 20260506224403 | 16 | 243 | 4.8 | 11.3 | 0.00 | 0.00 | 0.00 | 64 | 1009.1 |
| 20260506224203 | 16 | 239 | 6.4 | 14.5 | 0.00 | 0.00 | 0.00 | 64 | 1009.1 |
| 20260506224003 | 16 | 239 | 6.4 | 14.5 | 0.00 | 0.00 | 0.00 | 64 | 1009.0 |
| 20260506223803 | 16 | 236 | 6.4 | 14.5 | 0.00 | 0.00 | 0.00 | 64 | 1008.9 |
| 20260506223603 | 16 | 235 | 8.0 | 17.7 | 0.00 | 0.00 | 0.00 | 64 | 1009.2 |
| 20260506223403 | 16 | 235 | 8.0 | 17.7 | 0.00 | 0.00 | 0.00 | 64 | 1009.0 |
| 20260506223203 | 17 | 237 | 8.0 | 17.7 | 0.00 | 0.00 | 0.00 | 64 | 1009.0 |
| 20260506223003 | 17 | 233 | 9.7 | 20.9 | 0.00 | 0.00 | 0.00 | 64 | 1008.8 |
| 20260506222603 | 17 | 228 | 12.9 | 22.5 | 0.00 | 0.00 | 0.00 | 63 | 1008.8 |
| 20260506222403 | 17 | 226 | 12.9 | 22.5 | 0.00 | 0.00 | 0.00 | 63 | 1008.8 |
| 20260506222203 | 17 | 220 | 12.9 | 22.5 | 0.00 | 0.00 | 0.00 | 63 | 1008.8 |
| 20260506222003 | 17 | 215 | 14.5 | 24.1 | 0.00 | 0.00 | 0.00 | 63 | 1008.6 |
| 20260506221803 | 17 | 216 | 14.5 | 24.1 | 0.00 | 0.00 | 0.00 | 63 | 1008.5 |
| 20260506221603 | 17 | 211 | 14.5 | 25.7 | 0.00 | 0.00 | 0.00 | 63 | 1008.5 |
| 20260506221403 | 17 | 209 | 16.1 | 30.6 | 0.00 | 0.00 | 0.00 | 63 | 1008.5 |
| 20260506221203 | 17 | 216 | 16.1 | 30.6 | 0.00 | 0.00 | 0.00 | 63 | 1008.5 |
| 20260506221003 | 17 | 220 | 14.5 | 30.6 | 0.00 | 0.00 | 0.00 | 63 | 1008.4 |
| 20260506220803 | 17 | 216 | 14.5 | 30.6 | 0.00 | 0.00 | 0.00 | 63 | 1008.4 |
| 20260506220603 | 17 | 226 | 14.5 | 30.6 | 0.00 | 0.00 | 0.00 | 62 | 1008.6 |
| 20260506220203 | 17 | 228 | 14.5 | 27.4 | 0.00 | 0.00 | 0.00 | 62 | 1008.5 |
| 20260506220003 | 17 | 231 | 16.1 | 27.4 | 0.00 | 0.00 | 0.00 | 62 | 1008.5 |
| 20260506215803 | 17 | 234 | 14.5 | 27.4 | 0.00 | 0.00 | 0.00 | 62 | 1008.4 |
| 20260506215603 | 17 | 232 | 14.5 | 25.7 | 0.00 | 0.00 | 0.00 | 62 | 1008.8 |
| 20260506215403 | 17 | 231 | 16.1 | 25.7 | 0.00 | 0.00 | 0.00 | 62 | 1008.4 |
| 20260506215003 | 17 | 217 | 16.1 | 25.7 | 0.00 | 0.00 | 0.00 | 62 | 1008.5 |
| 20260506214803 | 17 | 217 | 14.5 | 25.7 | 0.00 | 0.00 | 0.00 | 62 | 1008.4 |
| 20260506214603 | 17 | 218 | 14.5 | 27.4 | 0.00 | 0.00 | 0.00 | 62 | 1008.6 |
| 20260506214203 | 17 | 226 | 14.5 | 27.4 | 0.00 | 0.00 | 0.00 | 62 | 1008.5 |
| 20260506214003 | 17 | 229 | 14.5 | 27.4 | 0.00 | 0.00 | 0.00 | 61 | 1008.5 |
| 20260506213803 | 17 | 230 | 14.5 | 27.4 | 0.00 | 0.00 | 0.00 | 61 | 1008.6 |
| 20260506213603 | 17 | 228 | 14.5 | 30.6 | 0.00 | 0.00 | 0.00 | 61 | 1008.4 |
| 20260506213403 | 17 | 230 | 14.5 | 30.6 | 0.00 | 0.00 | 0.00 | 61 | 1008.3 |
| 20260506213203 | 17 | 231 | 12.9 | 30.6 | 0.00 | 0.00 | 0.00 | 61 | 1008.3 |
| 20260506213003 | 17 | 230 | 12.9 | 30.6 | 0.00 | 0.00 | 0.00 | 61 | 1008.4 |
| 20260506212803 | 17 | 225 | 12.9 | 30.6 | 0.00 | 0.00 | 0.00 | 61 | 1008.4 |
| 20260506212603 | 17 | 222 | 14.5 | 30.6 | 0.00 | 0.00 | 0.00 | 61 | 1008.5 |
| 20260506212403 | 17 | 217 | 14.5 | 27.4 | 0.00 | 0.00 | 0.00 | 61 | 1008.4 |
| 20260506212203 | 17 | 214 | 14.5 | 29.0 | 0.00 | 0.00 | 0.00 | 61 | 1008.3 |
| 20260506212003 | 17 | 209 | 14.5 | 29.0 | 0.00 | 0.00 | 0.00 | 61 | 1008.2 |
| 20260506211803 | 17 | 215 | 16.1 | 29.0 | 0.00 | 0.00 | 0.00 | 61 | 1008.3 |
| 20260506211603 | 18 | 216 | 16.1 | 30.6 | 0.00 | 0.00 | 0.00 | 61 | 1008.4 |
| 20260506211203 | 18 | 221 | 17.7 | 30.6 | 0.00 | 0.00 | 0.00 | 60 | 1008.2 |
| 20260506211003 | 18 | 227 | 16.1 | 30.6 | 0.00 | 0.00 | 0.00 | 60 | 1008.1 |
| 20260506210403 | 18 | 222 | 16.1 | 30.6 | 0.00 | 0.00 | 0.00 | 60 | 1008.2 |
| 20260506210203 | 18 | 221 | 16.1 | 30.6 | 0.00 | 0.00 | 0.00 | 60 | 1008.1 |
| 20260506210003 | 18 | 219 | 17.7 | 30.6 | 0.00 | 0.00 | 0.00 | 60 | 1008.2 |
| 20260506205803 | 18 | 222 | 16.1 | 30.6 | 0.00 | 0.00 | 0.00 | 60 | 1008.2 |
| 20260506205403 | 18 | 227 | 17.7 | 29.0 | 0.00 | 0.00 | 0.00 | 60 | 1008.1 |
| 20260506205203 | 18 | 223 | 17.7 | 29.0 | 0.00 | 0.00 | 0.00 | 60 | 1008.3 |
| 20260506205004 | 18 | 222 | 16.1 | 29.0 | 0.00 | 0.00 | 0.00 | 60 | 1008.3 |
| 20260506204603 | 18 | 223 | 16.1 | 33.8 | 0.00 | 0.00 | 0.00 | 60 | 1008.0 |
| 20260506204403 | 18 | 217 | 16.1 | 33.8 | 0.00 | 0.00 | 0.00 | 60 | 1008.0 |
| 20260506204003 | 18 | 218 | 17.7 | 33.8 | 0.00 | 0.00 | 0.00 | 60 | 1008.1 |
| 20260506203803 | 18 | 215 | 17.7 | 33.8 | 0.00 | 0.00 | 0.00 | 60 | 1008.2 |
| 20260506203603 | 18 | 220 | 19.3 | 33.8 | 0.00 | 0.00 | 0.00 | 59 | 1008.1 |
| 20260506203403 | 18 | 227 | 19.3 | 33.8 | 0.00 | 0.00 | 0.00 | 60 | 1008.2 |
| 20260506203203 | 18 | 230 | 19.3 | 33.8 | 0.00 | 0.00 | 0.00 | 60 | 1008.2 |
| 20260506202803 | 18 | 227 | 17.7 | 33.8 | 0.00 | 0.00 | 0.00 | 60 | 1008.3 |
| 20260506202603 | 18 | 225 | 16.1 | 33.8 | 0.00 | 0.00 | 0.00 | 60 | 1008.4 |
| 20260506202403 | 18 | 217 | 16.1 | 30.6 | 0.00 | 0.00 | 0.00 | 60 | 1008.5 |
| 20260506202003 | 18 | 222 | 14.5 | 27.4 | 0.00 | 0.00 | 0.00 | 60 | 1008.4 |
| 20260506201803 | 18 | 222 | 14.5 | 29.0 | 0.00 | 0.00 | 0.00 | 59 | 1008.2 |
| 20260506201403 | 18 | 222 | 16.1 | 29.0 | 0.00 | 0.00 | 0.00 | 59 | 1008.2 |
| 20260506201203 | 18 | 220 | 16.1 | 32.2 | 0.00 | 0.00 | 0.00 | 59 | 1008.3 |
| 20260506201003 | 18 | 219 | 17.7 | 32.2 | 0.00 | 0.00 | 0.00 | 59 | 1008.2 |
| 20260506200803 | 18 | 218 | 16.1 | 32.2 | 0.00 | 0.00 | 0.00 | 59 | 1008.3 |
| 20260506200603 | 18 | 223 | 14.5 | 32.2 | 0.00 | 0.00 | 0.00 | 59 | 1008.4 |
| 20260506200403 | 18 | 221 | 14.5 | 32.2 | 0.00 | 0.00 | 0.00 | 59 | 1008.6 |
| 20260506200203 | 18 | 221 | 14.5 | 32.2 | 0.00 | 0.00 | 0.00 | 59 | 1008.5 |
| 20260506200003 | 18 | 226 | 12.9 | 30.6 | 0.00 | 0.00 | 0.00 | 59 | 1008.3 |
| 20260506195603 | 18 | 228 | 16.1 | 30.6 | 0.00 | 0.00 | 0.00 | 58 | 1008.5 |
| 20260506195403 | 18 | 232 | 14.5 | 30.6 | 0.00 | 0.00 | 0.00 | 58 | 1008.3 |
| 20260506195203 | 18 | 235 | 14.5 | 30.6 | 0.00 | 0.00 | 0.00 | 58 | 1008.5 |
| 20260506195003 | 18 | 234 | 14.5 | 30.6 | 0.00 | 0.00 | 0.00 | 58 | 1008.4 |
| 20260506194803 | 18 | 233 | 14.5 | 27.4 | 0.00 | 0.00 | 0.00 | 58 | 1008.3 |
| 20260506194603 | 18 | 226 | 14.5 | 29.0 | 0.00 | 0.00 | 0.00 | 58 | 1008.5 |
| 20260506194403 | 18 | 222 | 16.1 | 29.0 | 0.00 | 0.00 | 0.00 | 58 | 1008.4 |
| 20260506194203 | 18 | 216 | 16.1 | 29.0 | 0.00 | 0.00 | 0.00 | 57 | 1008.5 |
| 20260506193603 | 18 | 214 | 16.1 | 29.0 | 0.00 | 0.00 | 0.00 | 57 | 1008.3 |
| 20260506193403 | 18 | 213 | 16.1 | 27.4 | 0.00 | 0.00 | 0.00 | 57 | 1008.4 |
| 20260506193203 | 18 | 216 | 14.5 | 27.4 | 0.00 | 0.00 | 0.00 | 57 | 1008.4 |
| 20260506192803 | 18 | 214 | 12.9 | 25.7 | 0.00 | 0.00 | 0.00 | 56 | 1008.3 |
| 20260506192403 | 19 | 220 | 9.7 | 24.1 | 0.00 | 0.00 | 0.00 | 56 | 1008.5 |